Simultaneous Nadir Overpasses (SNOs) Predictions

Prediction of SNOs between NOAA-20 and METOP-C Satellite Orbit:

Table of predicted SNOs for the next 14.0 days since TLE Epoch: 12/5/2020
Index Date (NOAA-20) Time (NOAA-20) Lat,Lon (NOAA-20) SZA (NOAA-20 ) Date (METOP-C) Time (METOP-C) Lat,Lon (METOP-C) SZA (METOP-C ) Distance(km) Time Diff (sec)
1 12/05/2020 14:41:42 -73.34, 130.02 84.17 12/05/2020 14:42:49 -73.28, 132.72 84.30 86.42 67
2 12/05/2020 15:32:24 73.13, -62.22 95.63 12/05/2020 15:33:33 73.11, -60.32 95.54 61.30 69
3 12/05/2020 16:23:06 -73.04, 105.30 84.47 12/05/2020 16:24:16 -73.01, 106.79 84.55 48.54 70
4 12/05/2020 17:13:48 72.83, -86.95 95.32 12/05/2020 17:15:01 72.79, -86.35 95.24 20.55 73
5 12/05/2020 18:04:30 -72.74, 80.56 84.78 12/05/2020 18:05:44 -72.69, 80.77 84.85 9.53 74
6 12/05/2020 18:55:14 72.63,-111.91 95.12 12/05/2020 18:56:25 72.67,-111.94 95.14 3.46 71
7 12/05/2020 19:45:58 -72.64, 55.38 84.88 12/05/2020 19:47:06 -72.67, 55.39 84.86 2.42 68
8 12/05/2020 20:36:44 72.64,-137.30 95.13 12/05/2020 20:37:47 72.65,-137.32 95.13 1.03 63
9 12/05/2020 21:27:28 -72.65, 30.00 84.86 12/05/2020 21:28:28 -72.65, 30.01 84.87 0.52 60
10 12/05/2020 22:18:14 72.64,-162.68 95.14 12/05/2020 22:19:09 72.63,-162.70 95.12 1.94 55
11 12/05/2020 23:08:58 -72.65, 4.62 84.85 12/05/2020 23:09:50 -72.63, 4.63 84.88 2.84 52
12 12/05/2020 23:59:44 72.65, 171.94 95.15 12/06/2020 00:00:30 72.66, 172.03 95.16 3.20 46
13 12/06/2020 00:50:27 -72.61, -20.66 84.89 12/06/2020 00:51:12 -72.61, -20.74 84.89 2.76 45
14 12/06/2020 01:41:14 72.65, 146.55 95.17 12/06/2020 01:41:52 72.64, 146.65 95.15 3.36 38
15 12/06/2020 02:31:57 -72.61, -46.04 84.88 12/06/2020 02:32:33 -72.64, -46.02 84.85 3.41 36
16 12/06/2020 03:22:43 72.60, 121.28 95.13 12/06/2020 03:23:14 72.62, 121.27 95.14 1.69 31
17 12/06/2020 04:13:27 -72.61, -71.43 84.87 12/06/2020 04:13:55 -72.62, -71.40 84.86 1.16 28
18 12/06/2020 05:04:13 72.61, 95.89 95.14 12/06/2020 05:04:36 72.60, 95.89 95.13 0.96 23
19 12/06/2020 05:54:57 -72.62, -96.81 84.85 12/06/2020 05:55:17 -72.60, -96.78 84.87 2.12 20
20 12/06/2020 06:45:43 72.61, 70.51 95.15 12/06/2020 06:45:58 72.58, 70.51 95.12 3.55 15
21 12/06/2020 07:36:26 -72.57,-122.09 84.89 12/06/2020 07:36:39 -72.58,-122.16 84.88 2.60 13
22 12/06/2020 08:27:12 72.57, 45.23 95.11 12/06/2020 08:27:20 72.56, 45.13 95.11 3.44 8
23 12/06/2020 09:17:56 -72.58,-147.47 84.88 12/06/2020 09:18:01 -72.56,-147.54 84.89 2.61 5
24 12/06/2020 10:08:42 72.57, 19.85 95.12 12/06/2020 10:08:41 72.59, 19.85 95.14 2.56 1
25 12/06/2020 10:59:26 -72.58,-172.85 84.87 12/06/2020 10:59:22 -72.59,-172.81 84.85 2.13 4
26 12/06/2020 11:50:12 72.57, -5.53 95.13 12/06/2020 11:50:03 72.57, -5.53 95.13 0.27 9
27 12/06/2020 12:40:56 -72.58, 161.76 84.86 12/06/2020 12:40:44 -72.57, 161.81 84.86 1.73 12
28 12/06/2020 13:31:42 72.58, -30.92 95.15 12/06/2020 13:31:25 72.55, -30.91 95.12 2.69 17
29 12/06/2020 14:22:25 -72.54, 136.48 84.90 12/06/2020 14:22:06 -72.56, 136.43 84.87 2.81 19
30 12/06/2020 15:13:11 72.53, -56.20 95.11 12/06/2020 15:12:47 72.53, -56.28 95.11 2.98 24
31 12/06/2020 16:03:55 -72.54, 111.10 84.89 12/06/2020 16:03:28 -72.54, 111.05 84.88 1.81 27
32 12/06/2020 16:54:41 72.53, -81.58 95.12 12/06/2020 16:54:08 72.57, -81.56 95.15 3.49 33
33 12/06/2020 17:45:25 -72.54, 85.72 84.87 12/06/2020 17:44:49 -72.57, 85.77 84.85 3.13 36
34 12/06/2020 18:36:11 72.54,-106.96 95.13 12/06/2020 18:35:30 72.55,-106.94 95.14 1.09 41
35 12/06/2020 19:26:55 -72.55, 60.34 84.86 12/06/2020 19:26:11 -72.55, 60.39 84.86 1.91 44
36 12/06/2020 20:17:41 72.54,-132.34 95.14 12/06/2020 20:16:52 72.53,-132.32 95.13 1.97 49
37 12/06/2020 21:08:25 -72.55, 34.95 84.85 12/06/2020 21:07:33 -72.53, 35.01 84.87 3.32 52
38 12/06/2020 21:59:10 72.50,-157.62 95.10 12/06/2020 21:58:14 72.51,-157.70 95.12 2.79 56
39 12/06/2020 22:49:54 -72.51, 9.67 84.89 12/06/2020 22:48:55 -72.51, 9.64 84.88 1.34 59
40 12/06/2020 23:40:39 72.50, 176.99 95.11 12/06/2020 23:39:35 72.49, 176.92 95.11 2.73 64
41 12/07/2020 00:31:23 -72.51, -15.71 84.88 12/07/2020 00:30:16 -72.49, -15.74 84.89 2.47 67
42 12/07/2020 01:22:09 72.50, 151.61 95.13 12/07/2020 01:20:56 72.52, 151.65 95.15 2.07 73
43 12/07/2020 02:12:52 -72.46, -40.99 84.92 12/07/2020 02:11:38 -72.47, -41.12 84.90 4.54 74
44 12/07/2020 03:03:35 72.30, 126.64 94.92 12/07/2020 03:02:22 72.29, 125.86 94.95 26.17 73
45 12/07/2020 03:54:17 -72.21, -65.87 85.17 12/07/2020 03:53:05 -72.20, -67.00 85.15 38.56 72
46 12/07/2020 04:44:59 72.00, 101.85 94.61 12/07/2020 04:43:50 71.97, 99.89 94.65 67.33 69
47 12/07/2020 05:35:41 -71.91, -90.67 85.48 12/07/2020 05:34:33 -71.87, -92.96 85.45 79.55 68



Historial Predications of SNOs between NOAA-20 and METOP-C
